Location: Bothwell
(41.7170°N, 112.2589°W)
Time: 01:38:59
(UTC+00:00)

Tiros 1 - Pass Details

Date: 10 May 2026
Orbit: 618 x 649 km, 48.4° (Epoch: 6 June)

Event Time Altitude Azimuth Distance (km) Brightness Sun altitude
Rises 10:31:32 0° 266° (W) 2,898 - -16.7°
Reaches altitude 10° 10:33:56 10° 273° (W) 1,988 - -16.4°
Exits shadow 10:34:56 16° 278° (W) 1,635 8.9 -16.2°
Maximum altitude 10:38:18 44° 345° (NNW) 866 8.0 -15.8°
Drops below altitude 10° 10:42:40 10° 58° (ENE) 1,982 11.0 -15.2°
Sets 10:45:04 0° 65° (ENE) 2,887 12.0 -14.8°
